GFSFLT2_sfc_dewp_159.txt.gz
Dewpoint
16 20 21 33 33 33 28 30 30 38 41 46 50 48 51 49 51 53 54 59 62 64 64 65 67 68 68 68 68 69 70 71
17 21 21 24 30 22 29 25 34 41 44 37 48 50 51 51 50 54 58 61 63 63 64 65 67 68 67 70 69 69 71 71
27 25 23 24 23 27 26 29 32 36 42 41 45 45 42 49 53 54 58 60 62 62 63 64 65 66 69 69 69 70 69 70
27 29 29 28 23 24 26 25 33 40 40 44 46 42 50 51 52 56 57 59 62 62 62 62 65 63 65 65 65 67 67 67
18 34 32 32 26 39 29 26 32 33 37 43 44 48 49 52 53 56 57 57 61 63 66 65 65 67 66 68 65 65 68 67
21 30 37 34 32 36 37 28 34 40 40 44 45 46 49 52 54 54 59 59 59 62 64 66 67 67 67 67 67 68 67 68
26 32 35 37 33 33 33 34 33 39 39 46 50 50 48 52 54 55 57 62 61 61 62 64 67 68 68 67 67 66 68 67
29 28 29 34 37 34 32 33 33 39 39 49 48 49 50 51 50 55 55 57 64 65 65 64 64 67 69 69 67 68 68 65
32 31 32 35 37 36 36 36 35 29 36 47 47 47 49 53 52 54 53 53 54 62 66 66 66 66 67 68 69 69 69 68
36 36 30 40 36 38 37 35 34 29 39 43 45 46 52 53 52 53 54 56 57 61 66 66 66 67 67 66 66 66 67 68
33 32 32 33 38 37 36 35 34 30 42 44 45 48 51 52 51 53 56 59 61 63 64 66 66 68 67 66 67 68 67 67
32 31 29 36 37 41 40 34 41 31 35 41 46 44 48 49 52 55 58 58 60 61 64 65 64 65 64 64 66 66 67 68
33 32 36 41 39 41 37 37 45 43 44 33 40 48 50 51 55 56 58 59 59 59 61 63 64 64 63 63 63 66 68 69
37 31 31 46 41 38 45 46 48 48 53 53 51 50 50 52 55 55 56 55 56 59 61 63 62 63 62 62 66 68 68 67
41 42 48 50 47 48 47 46 47 47 52 52 50 50 52 54 55 56 53 53 56 59 62 63 64 63 63 63 64 65 66 66
46 46 46 50 53 51 48 45 48 48 52 51 52 53 53 54 54 56 56 53 53 57 60 63 65 63 63 62 64 65 65 65
49 48 48 48 52 53 52 48 46 58 59 56 53 53 54 55 55 55 56 54 56 54 58 63 64 63 63 64 62 63 64 65
46 51 49 52 53 53 52 51 49 53 56 59 56 53 54 55 57 57 57 57 59 57 59 62 62 64 64 63 62 61 62 63
49 53 54 53 53 52 52 51 50 56 59 59 55 50 57 58 57 58 59 61 61 59 59 60 61 64 64 64 63 61 62 61

GFSFLT2_sfc_dewp_162.txt.gz
Dewpoint
17 14 19 19 31 32 29 36 35 40 42 46 52 51 51 51 51 55 55 57 61 64 65 65 65 66 67 66 69 69 68 70
19 19 23 23 30 24 25 26 34 39 41 41 49 50 49 50 50 54 56 57 62 63 64 65 64 66 66 67 66 68 70 70
20 22 19 21 21 21 27 31 34 35 39 44 47 49 49 51 52 55 57 58 62 62 64 65 67 68 68 68 67 66 67 68
15 24 26 26 22 21 21 25 34 38 39 44 49 49 49 52 55 59 60 61 62 62 63 64 66 67 68 65 66 66 67 65
12 17 30 31 33 33 29 31 32 34 35 44 47 51 52 54 56 58 60 60 62 62 62 63 64 65 65 65 66 66 66 66
13 17 31 33 32 38 35 33 37 37 39 44 48 50 52 53 55 56 60 62 61 62 64 65 65 64 65 65 66 66 67 66
26 33 35 35 33 33 32 36 31 33 39 42 49 51 51 53 55 57 57 59 62 62 64 66 65 66 66 66 66 66 66 66
25 27 35 33 33 35 35 36 35 37 36 42 47 49 51 52 53 57 59 58 59 61 62 65 66 66 67 67 66 66 65 67
33 35 32 34 36 35 35 37 35 33 34 45 47 47 50 52 53 56 58 61 61 64 64 64 65 67 67 68 68 65 66 67
32 35 29 36 38 36 35 37 36 34 35 40 45 47 48 52 53 54 55 62 63 66 66 65 65 66 67 67 67 67 67 67
30 31 30 37 38 37 35 35 37 35 37 40 46 49 50 53 53 53 56 60 64 66 65 65 66 67 66 65 66 67 66 67
31 28 26 31 39 40 38 36 40 41 42 44 47 45 50 53 53 56 61 63 64 64 65 64 64 66 64 63 64 65 67 67
35 34 34 40 42 41 34 37 44 46 45 44 43 46 50 53 56 58 59 60 61 64 63 63 64 63 62 60 62 64 67 66
34 31 31 44 42 36 42 45 45 46 48 49 46 50 52 55 56 57 58 58 62 63 62 62 62 62 61 63 64 66 66 64
41 39 45 49 49 49 45 43 46 47 47 52 51 51 53 55 55 55 55 58 59 60 61 61 62 63 62 62 62 63 67 64
45 47 49 50 51 51 51 50 51 50 53 54 52 54 54 55 54 53 53 56 58 61 62 62 62 62 62 62 62 63 65 65
45 48 51 50 49 51 51 52 53 57 57 57 57 55 55 55 54 53 54 53 57 59 62 63 62 61 62 62 61 62 62 64
43 45 46 48 52 53 53 51 53 57 57 59 58 56 56 56 55 55 52 54 54 58 62 63 62 62 63 61 61 60 60 61
46 50 52 52 52 53 53 52 53 59 58 57 58 59 58 57 55 56 54 56 55 59 61 62 62 62 61 61 60 59 59 60

GFSFLT2_sfc_dewp_165.txt.gz
Dewpoint
17 16 17 19 29 28 30 37 34 40 41 44 51 49 51 53 54 56 57 58 60 62 64 64 64 65 66 66 68 68 67 67
15 19 20 20 28 27 28 26 30 39 39 40 43 48 50 50 51 55 56 58 60 62 63 64 64 65 67 66 67 69 69 68
19 18 16 21 22 25 24 30 29 33 37 43 43 47 49 50 51 53 57 56 60 63 64 63 65 66 66 67 66 67 69 69
14 19 24 22 20 21 19 23 36 36 36 43 46 50 49 51 52 54 57 59 62 62 63 64 65 67 67 68 67 67 67 67
15 16 20 28 29 28 27 33 34 32 32 43 46 49 50 52 56 58 58 61 62 62 62 63 64 66 67 65 66 67 66 65
16 16 22 32 35 35 33 32 34 35 37 41 48 51 54 56 57 58 59 61 61 61 61 62 63 64 65 66 65 66 65 65
20 18 33 30 34 36 32 34 29 31 38 40 48 52 55 56 57 58 59 60 61 61 62 63 63 64 64 65 65 65 66 66
24 29 34 33 32 33 33 36 34 34 36 41 48 51 52 56 57 58 60 60 61 63 65 64 64 64 64 64 64 65 65 65
28 34 33 33 33 34 34 36 35 34 34 44 46 48 51 54 56 57 58 60 61 62 64 64 65 65 64 65 65 65 65 65
32 31 29 33 37 37 34 35 35 34 37 39 41 46 50 53 55 57 58 59 61 62 63 64 64 66 66 66 66 65 64 65
32 30 30 32 38 36 34 33 39 35 38 43 47 46 49 53 54 58 59 62 64 65 64 64 64 65 65 65 65 65 66 66
33 30 26 31 39 39 37 33 42 42 44 44 46 44 46 53 55 55 61 63 65 65 65 65 64 65 64 63 64 64 65 66
35 37 36 37 41 41 33 35 43 45 46 45 45 46 48 53 56 59 62 64 65 65 64 64 64 63 61 60 61 64 66 65
36 34 32 46 41 37 40 44 44 46 47 49 50 52 53 54 57 61 62 63 64 63 62 62 62 61 59 62 63 65 64 63
41 37 44 48 48 50 48 45 47 46 48 51 50 52 53 56 59 59 60 62 63 62 61 61 61 61 61 61 62 64 65 64
44 45 48 50 52 51 51 49 50 51 52 53 51 53 55 56 57 58 60 61 61 61 60 60 61 62 61 61 61 61 63 63
45 47 48 51 52 52 52 52 55 56 57 57 55 56 56 57 57 57 59 59 60 60 60 60 61 61 61 61 61 60 61 61
44 46 43 46 49 55 51 50 53 54 56 58 55 55 55 56 59 58 58 58 60 61 61 61 61 61 61 60 60 60 59 61
44 49 50 50 51 52 51 52 53 56 57 56 56 57 57 58 59 59 59 55 57 61 62 62 61 60 61 59 59 58 58 58

GFSFLT2_sfc_dewp_168.txt.gz
Dewpoint
15 15 24 26 33 29 32 34 33 39 41 42 51 50 52 52 55 55 56 58 60 61 63 64 64 65 66 67 66 66 65 66
16 18 21 24 27 25 27 27 28 35 39 39 44 49 51 53 54 56 58 59 60 61 62 64 64 65 66 68 67 67 68 66
17 17 17 24 26 25 27 28 25 28 32 42 44 49 50 50 52 55 57 59 60 61 63 64 65 66 66 67 67 68 69 69
16 17 21 21 20 23 20 23 34 31 33 40 47 46 51 51 52 53 57 58 60 62 63 64 64 66 66 67 66 67 68 70
14 21 23 25 24 22 28 34 35 32 30 39 46 47 50 51 52 53 57 60 61 63 63 64 65 66 66 67 67 68 68 68
15 18 22 32 34 31 30 29 33 33 31 38 44 48 50 52 54 56 57 61 61 61 62 62 64 65 66 67 67 67 67 66
17 18 23 30 34 34 32 33 30 31 36 36 43 50 53 54 57 58 58 60 61 61 61 62 62 64 65 66 66 66 65 66
25 26 28 32 34 35 34 35 35 36 37 41 50 54 55 56 57 58 59 60 61 61 62 62 63 63 64 64 65 66 66 66
29 35 34 31 33 33 34 37 34 34 35 48 50 53 54 56 58 58 59 61 61 62 64 64 64 65 64 64 65 65 65 65
31 33 29 31 37 37 35 36 36 38 39 47 49 52 53 56 57 59 60 62 62 63 64 65 66 66 66 66 66 66 65 66
32 30 31 32 38 38 35 34 38 36 39 42 45 45 46 54 57 58 59 61 62 63 64 64 66 67 67 66 66 66 66 66
32 30 29 33 39 41 38 33 42 39 42 46 47 42 42 50 55 58 60 61 63 64 64 64 64 65 65 65 65 66 66 67
35 36 37 38 40 42 34 36 46 45 46 46 46 47 47 52 55 58 61 64 65 64 64 64 65 64 63 63 64 66 67 66
38 34 33 47 44 40 42 50 47 49 48 49 49 50 52 55 56 60 63 64 65 64 64 64 64 63 61 62 65 66 66 65
40 38 45 48 50 50 50 47 50 49 47 51 52 52 53 55 59 61 63 64 64 63 62 62 62 62 62 64 65 66 65 64
42 44 49 51 52 52 51 52 52 53 52 54 52 52 54 57 59 62 63 63 63 62 62 61 61 62 62 63 63 64 64 64
45 45 46 49 53 53 53 52 52 55 57 56 56 55 57 59 60 61 63 63 62 61 61 61 61 62 62 62 62 62 63 62
44 49 48 48 50 52 52 51 50 54 55 57 57 57 58 57 59 60 59 61 61 61 61 61 62 61 62 62 62 62 62 61
51 52 49 49 50 52 52 52 53 53 56 57 57 57 58 58 60 59 61 61 60 60 61 61 61 61 62 61 61 61 61 62

GFSFLT2_sfc_dewp_171.txt.gz
Dewpoint
16 19 28 35 34 31 28 37 33 36 40 41 48 50 50 50 51 55 55 57 59 61 62 63 63 65 66 67 69 68 67 69
17 16 21 29 32 25 29 28 25 34 39 33 40 49 51 51 52 55 57 58 59 60 62 64 63 64 67 67 67 68 68 68
20 20 19 24 23 27 26 28 20 23 28 41 46 48 50 51 53 55 57 58 59 61 62 64 65 65 66 68 69 68 68 68
20 20 21 26 23 25 20 28 33 30 28 36 47 47 50 51 54 55 58 59 60 61 63 65 66 66 67 68 68 68 70 70
23 19 21 19 23 23 25 28 35 24 24 38 46 48 49 52 53 55 57 60 61 62 64 65 66 67 67 69 68 69 70 70
24 28 24 28 29 25 23 24 26 28 26 35 40 47 50 52 54 55 57 60 61 63 64 65 66 67 68 68 70 69 69 69
23 22 20 21 23 29 28 27 27 24 34 34 41 47 50 52 54 56 57 60 61 63 64 65 66 67 68 69 70 70 70 69
31 28 26 24 24 28 31 32 32 33 36 39 44 49 52 54 55 56 58 59 61 63 64 65 65 66 67 68 69 69 69 69
34 33 33 30 31 30 32 34 33 34 35 44 47 50 52 54 57 57 59 61 62 63 64 65 65 66 66 68 68 68 69 68
34 37 30 29 36 35 35 35 36 37 40 45 46 50 55 56 56 58 61 62 63 63 65 67 67 67 68 68 68 68 68 68
34 33 34 33 37 37 35 34 36 37 39 40 44 48 51 55 58 59 61 62 63 64 67 68 68 69 69 69 69 69 69 70
36 33 32 35 38 42 40 34 41 40 40 43 45 39 42 50 56 59 60 62 64 65 66 67 68 68 68 68 68 68 69 70
35 35 35 44 46 45 36 38 47 45 43 48 45 45 51 51 52 57 61 62 64 65 65 67 67 67 67 68 68 69 70 70
38 36 34 47 46 43 50 51 49 49 49 49 52 52 53 54 55 55 60 62 64 64 65 66 67 67 67 67 68 70 70 69
45 41 48 49 50 51 51 52 52 52 52 53 50 51 52 54 57 58 60 63 64 64 66 67 68 67 67 68 69 69 69 68
45 43 45 47 48 50 52 52 51 51 52 55 53 54 55 55 57 59 62 64 64 65 65 66 68 67 66 68 68 68 67 67
43 44 47 49 50 51 52 52 51 51 52 55 57 57 57 58 60 62 65 65 66 66 64 65 66 66 65 66 66 65 66 66
41 48 49 48 49 50 49 51 52 52 52 55 58 59 60 61 64 65 65 66 66 66 65 64 64 64 65 65 65 64 65 63
49 51 50 50 50 51 51 51 52 53 54 54 57 59 60 62 64 63 64 65 64 64 64 64 63 63 64 64 65 65 64 64

GFSFLT2_sfc_dewp_174.txt.gz
Dewpoint
17 17 23 25 31 23 20 19 20 21 29 32 39 46 47 46 49 50 53 53 55 58 60 61 62 64 65 66 69 69 68 70
19 17 21 23 27 24 21 23 24 22 27 28 33 44 44 44 46 52 54 55 56 57 60 61 61 63 65 66 68 68 68 69
22 21 20 22 20 22 17 20 21 21 24 30 34 41 44 44 46 53 55 56 57 58 60 61 62 62 64 66 67 68 67 68
23 23 22 23 23 21 21 26 25 25 23 28 34 43 44 44 48 52 56 57 58 60 61 62 64 63 64 67 67 68 68 69
24 22 24 22 24 23 21 20 27 23 23 31 34 45 48 47 48 53 57 58 59 60 62 64 65 67 66 68 68 68 69 69
22 27 27 27 26 24 21 19 22 22 26 27 32 37 47 50 51 51 56 59 60 61 63 65 67 68 69 69 70 69 68 68
25 24 24 24 24 24 26 27 24 25 24 28 30 34 41 49 52 54 55 57 60 63 64 66 68 69 69 69 70 70 70 70
34 31 27 24 23 23 25 26 28 26 27 27 30 40 44 47 51 54 56 57 60 63 65 66 67 68 68 69 70 70 70 70
34 32 31 28 28 28 27 28 29 28 31 33 34 43 44 47 52 54 56 58 60 63 65 66 67 68 68 70 70 70 71 71
35 36 31 31 32 31 30 30 30 31 33 36 41 40 45 48 48 54 56 60 62 62 64 66 66 67 68 69 70 71 71 71
34 32 33 30 32 34 35 33 32 33 35 36 40 44 47 48 52 54 58 61 62 61 64 66 67 68 69 69 69 70 69 70
35 32 30 33 40 42 41 35 45 45 42 37 42 35 39 51 52 55 57 60 61 62 65 63 66 67 67 67 68 69 69 70
34 33 33 39 44 43 37 40 49 48 49 45 42 44 52 49 51 51 58 61 62 63 60 63 65 64 65 67 67 68 70 71
34 34 35 48 44 43 49 50 51 51 51 52 53 52 51 49 52 52 53 60 62 62 62 66 65 64 66 66 68 70 70 70
44 44 47 47 46 47 48 50 51 51 50 51 52 52 52 53 53 54 56 57 62 60 64 66 66 65 65 68 68 68 69 68
43 41 42 44 45 47 50 51 51 51 50 50 52 54 55 56 56 55 58 59 63 63 65 66 66 65 65 67 67 67 66 66
40 40 41 43 47 48 47 48 50 51 50 50 52 54 57 59 61 60 61 61 64 65 66 66 65 63 64 66 66 65 65 64
42 43 44 47 46 48 48 48 50 51 52 53 54 56 59 60 63 64 64 65 68 69 67 64 62 63 64 64 64 64 63 63
48 47 44 46 47 45 49 50 51 52 53 52 53 53 57 61 64 63 66 67 69 68 66 64 63 64 64 64 65 65 63 64